FW9374 Weather Reports


Display with metric or nautical units.
time (UTC)temp
F
wind
direction
speed
MPH
gust
MPH
rain 1hr
in
rain 24hr
in
rain mn
in
humidity
%
barometer
mb
20260505014057 68 294 0.0 0.0 0.00 0.00 0.00 36 1014.2
20260505013557 68 294 0.0 0.0 0.00 0.00 0.00 35 1013.9
20260505013057 68 294 0.0 0.0 0.00 0.00 0.00 35 1014.2
20260505012557 69 294 0.0 0.0 0.00 0.00 0.00 34 1014.2
20260505012057 69 294 0.0 0.0 0.00 0.00 0.00 34 1014.2
20260505011557 69 294 0.0 0.0 0.00 0.00 0.00 34 1014.2
20260505011058 69 294 0.0 0.0 0.00 0.00 0.00 33 1013.9
20260505010557 70 294 0.0 0.0 0.00 0.00 0.00 33 1013.9
20260505010058 70 294 0.0 0.0 0.00 0.00 0.00 33 1013.9
20260505005559 70 294 0.0 0.0 0.00 0.00 0.00 34 1013.9
20260505005057 70 294 0.0 0.0 0.00 0.00 0.00 32 1013.9
20260505004557 71 294 0.0 0.0 0.00 0.00 0.00 32 1013.5
20260505004057 71 294 0.0 0.0 0.00 0.00 0.00 32 1013.9
20260505003558 71 294 0.0 0.0 0.00 0.00 0.00 32 1013.9
20260505003057 72 294 0.0 0.0 0.00 0.00 0.00 32 1013.5
20260505002558 72 294 0.0 0.0 0.00 0.00 0.00 32 1013.5
20260505002057 73 293 1.0 1.0 0.00 0.00 0.00 32 1013.5
20260505001557 73 296 0.0 1.0 0.00 0.00 0.00 32 1013.5
20260505001057 73 293 0.0 1.0 0.00 0.00 0.00 31 1013.5
20260505000557 74 293 0.0 1.0 0.00 0.00 0.00 32 1013.5
20260505000057 74 292 1.0 1.0 0.00 0.00 0.00 31 1013.9
20260504235557 75 288 1.0 1.0 0.00 0.00 0.00 31 1013.5
20260504235058 75 288 0.0 1.0 0.00 0.00 0.00 31 1013.5
20260504234557 75 318 1.0 1.0 0.00 0.00 0.00 30 1013.5
20260504234057 75 298 1.0 2.0 0.00 0.00 0.00 29 1013.2
20260504233558 76 321 2.0 3.0 0.00 0.00 0.00 29 1013.2
20260504233057 76 289 1.0 2.0 0.00 0.00 0.00 28 1013.5
20260504232557 76 291 1.0 1.0 0.00 0.00 0.00 27 1012.9
20260504232057 77 285 1.0 2.0 0.00 0.00 0.00 26 1013.2
20260504231557 77 293 1.0 2.0 0.00 0.00 0.00 26 1012.9
20260504231057 77 301 0.0 0.0 0.00 0.00 0.00 26 1012.9
20260504230557 77 284 1.0 2.0 0.00 0.00 0.00 25 1012.9
20260504230058 77 268 2.0 3.0 0.00 0.00 0.00 25 1012.9
20260504225557 78 306 1.0 2.0 0.00 0.00 0.00 26 1012.9
20260504225057 78 306 1.0 5.0 0.00 0.00 0.00 26 1012.9
20260504224559 78 260 1.0 2.0 0.00 0.00 0.00 26 1013.2
20260504224057 78 268 1.0 5.0 0.00 0.00 0.00 25 1013.2
20260504223557 79 348 1.0 2.0 0.00 0.00 0.00 26 1012.9
20260504223100 80 270 0.0 2.0 0.00 0.00 0.00 26 1013.2
20260504222558 81 36 1.0 1.0 0.00 0.00 0.00 22 1013.2
20260504222058 80 302 0.0 2.0 0.00 0.00 0.00 23 1013.2
20260504221558 81 323 4.0 6.0 0.00 0.00 0.00 21 1012.9
20260504221057 80 310 3.0 3.0 0.00 0.00 0.00 21 1012.9
20260504220557 80 279 3.0 3.0 0.00 0.00 0.00 21 1012.9
20260504220058 80 271 1.0 2.0 0.00 0.00 0.00 22 1013.2
20260504215558 80 286 1.0 2.0 0.00 0.00 0.00 22 1012.9
20260504215057 81 303 2.0 3.0 0.00 0.00 0.00 20 1012.9
20260504214557 81 286 1.0 2.0 0.00 0.00 0.00 21 1012.9
20260504214057 81 324 1.0 3.0 0.00 0.00 0.00 22 1012.9
20260504213557 81 348 1.0 3.0 0.00 0.00 0.00 21 1013.2
20260504213057 82 289 2.0 5.0 0.00 0.00 0.00 20 1012.9
20260504212558 80 282 1.0 5.0 0.00 0.00 0.00 22 1013.2
20260504212057 81 22 1.0 6.0 0.00 0.00 0.00 19 1013.2
20260504211558 81 295 1.0 3.0 0.00 0.00 0.00 21 1013.2
20260504211057 81 329 1.0 8.0 0.00 0.00 0.00 20 1012.9
20260504210558 81 297 1.0 3.0 0.00 0.00 0.00 21 1013.2
20260504210057 81 305 1.0 3.0 0.00 0.00 0.00 21 1013.2
20260504205557 80 277 1.0 2.0 0.00 0.00 0.00 23 1013.2
20260504205057 80 84 1.0 2.0 0.00 0.00 0.00 21 1013.2
20260504204557 81 270 2.0 3.0 0.00 0.00 0.00 25 1013.5
20260504204057 80 343 1.0 2.0 0.00 0.00 0.00 23 1013.5
20260504203558 80 273 2.0 2.0 0.00 0.00 0.00 24 1013.5
20260504203057 80 287 3.0 3.0 0.00 0.00 0.00 21 1013.5
20260504202557 80 308 1.0 5.0 0.00 0.00 0.00 20 1013.5
20260504202057 80 142 2.0 2.0 0.00 0.00 0.00 22 1013.5
20260504201605 79 285 1.0 5.0 0.00 0.00 0.00 26 1013.9
20260504201058 78 250 1.0 3.0 0.00 0.00 0.00 23 1013.5
20260504200557 80 275 1.0 2.0 0.00 0.00 0.00 23 1013.9
20260504200058 79 4 0.0 2.0 0.00 0.00 0.00 26 1013.5
20260504195558 79 249 2.0 2.0 0.00 0.00 0.00 24 1013.9
20260504195058 78 293 1.0 3.0 0.00 0.00 0.00 27 1013.9
20260504194557 79 137 1.0 6.0 0.00 0.00 0.00 24 1013.5
20260504194058 79 298 0.0 3.0 0.00 0.00 0.00 24 1013.9
20260504193558 79 307 2.0 3.0 0.00 0.00 0.00 26 1014.2
20260504193057 80 295 1.0 5.0 0.00 0.00 0.00 24 1014.2
20260504192558 79 64 0.0 1.0 0.00 0.00 0.00 20 1014.2
20260504192057 79 299 1.0 3.0 0.00 0.00 0.00 24 1014.2
20260504191557 77 178 1.0 1.0 0.00 0.00 0.00 21 1014.2
20260504191058 76 303 1.0 2.0 0.00 0.00 0.00 25 1014.6
20260504190558 77 92 3.0 5.0 0.00 0.00 0.00 23 1014.2
20260504190058 79 288 4.0 6.0 0.00 0.00 0.00 21 1014.6
20260504185557 78 58 2.0 2.0 0.00 0.00 0.00 23 1014.6
20260504185058 77 110 1.0 1.0 0.00 0.00 0.00 26 1014.6
20260504184558 77 244 3.0 3.0 0.00 0.00 0.00 23 1014.6
20260504184057 77 243 1.0 2.0 0.00 0.00 0.00 25 1014.6
20260504183558 76 301 2.0 3.0 0.00 0.00 0.00 24 1014.9
20260504183057 76 270 3.0 3.0 0.00 0.00 0.00 23 1014.9
20260504182558 76 236 1.0 3.0 0.00 0.00 0.00 24 1015.2
20260504182057 75 290 1.0 3.0 0.00 0.00 0.00 24 1015.2
20260504181558 74 282 1.0 3.0 0.00 0.00 0.00 27 1015.2
20260504181057 75 245 0.0 1.0 0.00 0.00 0.00 25 1015.2
20260504180558 77 343 1.0 2.0 0.00 0.00 0.00 25 1015.2
20260504180058 76 130 1.0 2.0 0.00 0.00 0.00 25 1015.2
20260504175557 75 280 1.0 5.0 0.00 0.00 0.00 29 1015.2
20260504175058 75 355 1.0 1.0 0.00 0.00 0.00 29 1015.2
20260504174557 76 258 1.0 6.0 0.00 0.00 0.00 25 1015.2
20260504174058 75 3 0.0 0.0 0.00 0.00 0.00 26 1015.2
20260504173558 75 313 1.0 2.0 0.00 0.00 0.00 24 1015.2
20260504173105 76 271 1.0 3.0 0.00 0.00 0.00 23 1015.2
20260504172558 75 224 1.0 3.0 0.00 0.00 0.00 25 1015.2
20260504172057 75 86 4.0 6.0 0.00 0.00 0.00 26 1015.6
20260504171600 75 234 1.0 2.0 0.00 0.00 0.00 28 1015.6
20260504171057 75 253 2.0 6.0 0.00 0.00 0.00 28 1015.9
20260504170558 75 6 1.0 2.0 0.00 0.00 0.00 29 1015.6
20260504151057 69 281 1.0 1.0 0.00 0.00 0.00 35 1016.9
20260504150558 71 9 0.0 2.0 0.00 0.00 0.00 37 1016.9
20260504141058 66 135 0.0 0.0 0.00 0.00 0.00 46 1017.3
20260504140557 66 135 1.0 1.0 0.00 0.00 0.00 49 1016.9
20260504130558 56 290 0.0 0.0 0.00 0.00 0.00 66 1017.3
20260504110558 45 263 0.0 0.0 0.00 0.00 0.00 92 1016.6
20260504100557 46 263 0.0 0.0 0.00 0.00 0.00 90 1016.9
20260504081558 48 263 0.0 0.0 0.00 0.00 0.00 84 1016.3
20260504081057 48 263 0.0 0.0 0.00 0.00 0.00 83 1015.9
20260504080558 48 263 0.0 0.0 0.00 0.00 0.00 83 1015.9
20260504050558 51 300 0.0 0.0 0.00 0.00 0.00 74 1016.6
20260504045558 51 300 0.0 0.0 0.00 0.00 0.00 73 1016.6
20260504045057 51 300 0.0 0.0 0.00 0.00 0.00 73 1016.6
20260504044557 52 300 0.0 0.0 0.00 0.00 0.00 73 1016.6
20260504044105 52 300 0.0 0.0 0.00 0.00 0.00 72 1016.6
20260504043557 52 300 0.0 0.0 0.00 0.00 0.00 73 1016.6
20260504043057 52 300 0.0 0.0 0.00 0.00 0.00 72 1016.9
20260504042557 52 300 0.0 0.0 0.00 0.00 0.00 72 1016.6
20260504042057 52 300 0.0 0.0 0.00 0.00 0.00 71 1016.9
20260504041557 52 300 0.0 0.0 0.00 0.00 0.00 71 1016.6
20260504041057 53 300 0.0 0.0 0.00 0.00 0.00 71 1016.9
20260504040559 53 300 0.0 0.0 0.00 0.00 0.00 70 1016.6
20260504040057 53 300 0.0 0.0 0.00 0.00 0.00 69 1016.9
20260504035557 53 300 0.0 0.0 0.00 0.00 0.00 69 1016.9
20260504035057 53 300 0.0 0.0 0.00 0.00 0.00 69 1016.9
20260504034558 53 300 0.0 0.0 0.00 0.00 0.00 68 1017.3
20260504034057 53 300 0.0 0.0 0.00 0.00 0.00 67 1016.9
20260504033558 54 300 0.0 0.0 0.00 0.00 0.00 67 1016.9
20260504033057 54 300 0.0 0.0 0.00 0.00 0.00 67 1016.9
20260504032557 54 300 0.0 0.0 0.00 0.00 0.00 66 1016.9
20260504032057 54 300 0.0 0.0 0.00 0.00 0.00 65 1016.9
20260504031557 54 300 0.0 0.0 0.00 0.00 0.00 64 1016.9
20260504031058 55 300 0.0 0.0 0.00 0.00 0.00 65 1016.9
20260504030557 55 300 0.0 0.0 0.00 0.00 0.00 64 1016.9
20260504030057 55 300 0.0 0.0 0.00 0.00 0.00 63 1016.9
20260504025558 56 300 0.0 0.0 0.00 0.00 0.00 63 1016.6
20260504025058 56 300 0.0 0.0 0.00 0.00 0.00 61 1016.9
20260504024557 56 300 0.0 0.0 0.00 0.00 0.00 62 1016.9
20260504024058 56 300 0.0 0.0 0.00 0.00 0.00 61 1016.6
20260504023557 56 300 0.0 0.0 0.00 0.00 0.00 61 1016.6
20260504023057 56 300 0.0 0.0 0.00 0.00 0.00 60 1016.6
20260504022557 56 300 0.0 0.0 0.00 0.00 0.00 59 1016.6
20260504022057 57 300 0.0 0.0 0.00 0.00 0.00 59 1016.3
20260504021557 57 300 0.0 0.0 0.00 0.00 0.00 59 1016.3
20260504021100 57 300 0.0 0.0 0.00 0.00 0.00 58 1016.3
20260504020557 57 300 0.0 0.0 0.00 0.00 0.00 57 1016.3
20260504020059 58 300 0.0 0.0 0.00 0.00 0.00 56 1016.3
20260504015557 58 300 0.0 0.0 0.00 0.00 0.00 55 1016.3
20260504015057 58 300 0.0 0.0 0.00 0.00 0.00 54 1015.9
20260504014557 58 300 0.0 0.0 0.00 0.00 0.00 53 1015.9